Weather in Cheremukhovka

Russia / Komi Republic     59°31′14″N   49°29′26″E
temp.,
°C
wind,
m/s
gust,
m/s
humid.,
%
clouds,
%
prec.,
mm/h
press.,
hPa
HPBL,
m
18 april, sun
sun1800:00+2nw29855 0.0 1025203
03:00+1nnw311905 0.0 1026326
06:00+2ne5983100 0.0 1027768
09:00+3ne57460 0.0 10291123
12:00+4ene57393 0.0 10311524
15:00+5ene56386 0.0 10311736
18:00+3ene47485 0.0 10331101
21:000ene310634 0.0 1034351
19 april, mon
mon1900:00−2ene310675 0.0 1035326
03:00−2ene39690 0.0 1037271
06:00−1e38615 0.0 1037355
09:00+3e45390 0.0 10371335
12:00+5e34333 0.0 10361553
15:00+6e34320 0.0 10351534
18:00+4e25430 0.0 1035192
21:00−1e23600 0.0 103646
20 april, tue
tue2000:00−2ese24630 0.0 103783
03:00−2se12640 0.0 103818
06:000se12530 0.0 1037134
09:00+5se23350 0.0 1037940
12:00+8sse23300 0.0 10361331
15:00+9sse23300 0.0 10341337
18:00+6sse22450 0.0 103330
21:00+2se22570 0.0 103320
21 april, wed
wed2100:000se23640 0.0 103352
03:00−1se26700 0.0 1033115
06:00+2se31059100 0.0 1032283
09:00+7se5103793 0.0 1030892
12:00+10se61030100 0.0 10281211
15:00+11sse61334100 0.0 10261477
18:00+9sse61340100 0.0 10251227
21:00+7sse61445100 0.0 10241160
22 april, thu
thu2200:00+6sse61448100 0.0 10231119
03:00+4s61280100 0.0 1024937
06:00+3sse51296100 0.0 1024790
09:00+4s51296100 0.1 1025676
12:00+6sse51187100 0.0 1025804
15:00+7sse51081100 0.0 1026989
18:00+6s51086100 0.1 1026968
21:00+6s4119198 0.1 1028684